User: anonymous   Login
Location: Unspecified
(0.0000°N, 0.0000°E)
Time: 00:13:22
(UTC+00:00)
Language:

KANOPUS-V 4 - Orbit

View from above orbital plane
View from above orbital plane
View from above satellite
View from above satellite

Ground track
Ground track

The orbit data is extracted from the following two-line orbital elements,

1 43181U 18014B   19046.84603348  .00040107  00000-0  19016-2 0  9998
2 43181  97.4496 316.9462 0001943  75.1896  10.2150 15.19171092 57650
Epoch (UTC): 15 February 2019 20:18:17
Eccentricity: 0.0001943
inclination: 97.4496°
perigee height: 507 km
apogee height: 509 km
right ascension of ascending node: 316.9462°
argument of perigee: 75.1896°
revolutions per day: 15.19171092
mean anomaly at epoch: 10.2150°
orbit number at epoch: 5765

The dashed part of the orbit path shows where the satellite is in the earth's shadow,  

DLR